Simultaneous Nadir Overpasses (SNOs) Predictions

Prediction of SNOs between AQUA and NOAA-19 Satellite Orbit:

Table of predicted SNOs for the next 14.0 days since TLE Epoch: 7/14/2017
Index Date (AQUA) Time (AQUA) Lat,Lon (AQUA) SZA (AQUA ) Date (NOAA-19) Time (NOAA-19) Lat,Lon (NOAA-19) SZA (NOAA-19 ) Distance(km) Time Diff (sec)
1 07/17/2017 00:12:30 -80.94, -43.44 117.83 07/17/2017 00:12:29 -80.95, -43.49 117.82 1.14 1
2 07/19/2017 05:46:13 80.94, 53.21 62.55 07/19/2017 05:46:22 80.95, 53.18 62.56 1.53 9
3 07/21/2017 11:19:57 -80.94, 149.78 117.03 07/21/2017 11:20:05 -80.95, 149.64 117.01 2.85 8
4 07/23/2017 16:53:40 80.94,-113.69 63.43 07/23/2017 16:53:58 80.95,-113.80 63.44 2.27 18
5 07/25/2017 21:37:57 80.95, 175.18 63.91 07/25/2017 21:36:46 80.95, 175.11 63.95 1.28 71
6 07/25/2017 22:27:25 -80.97, -17.48 116.04 07/25/2017 22:27:41 -80.95, -17.32 116.08 3.33 16
7 07/28/2017 03:11:41 -80.95, -88.28 115.59 07/28/2017 03:10:29 -80.95, -88.36 115.55 1.52 72




NCC Satellite Simultaneous Nadir Overpasses (SNOs) Prediction Service
